Snowfall_Accumulation
3.4 8.7 11.1 5.5 4.0 3.5 3.7 4.0 3.4 1.9 0.6 1.1 1.3 0.9 0.2 0.1 0.1 0.1 0.4 0.2 0.1 0.1 0.0 0.0 0.0 0.0 0.0 0.0 0.0 0.0 0.0 0.0 0.0 0.0 0.0 0.0 0.1 0.0 0.0 0.0 0.0 0.0 0.0 0.0
7.3 9.0 4.2 1.7 2.2 3.5 4.8 5.7 3.9 1.8 0.8 1.3 1.5 1.0 0.3 0.1 0.2 0.3 0.3 0.2 0.2 0.1 0.0 0.0 0.0 0.0 0.0 0.0 0.0 0.0 0.0 0.0 0.0 0.0 0.0 0.0 0.0 0.0 0.0 0.0 0.0 0.0 0.0 0.0
8.3 4.1 0.9 2.8 4.0 5.8 5.7 5.1 3.6 3.2 2.2 1.7 2.8 2.7 0.8 0.4 0.3 0.5 0.5 0.4 0.2 0.2 0.1 0.1 0.1 0.1 0.1 0.0 0.0 0.0 0.0 0.0 0.0 0.0 0.0 0.0 0.0 0.0 0.0 0.0 0.0 0.0 0.0 0.0
4.7 1.4 1.7 3.8 4.7 5.5 7.2 2.4 2.3 3.1 5.6 6.8 5.4 8.7 2.3 0.9 0.6 0.6 0.6 0.6 0.5 0.3 0.2 0.1 0.2 0.1 0.1 0.1 0.1 0.0 0.0 0.0 0.0 0.0 0.0 0.0 0.0 0.0 0.0 0.0 0.0 0.0 0.0 0.0
5.8 1.8 2.5 4.9 3.3 3.3 3.8 1.3 2.2 3.9 6.6 9.3 5.2 9.6 3.7 1.5 1.9 1.6 0.7 0.7 0.7 0.5 0.4 0.3 0.2 0.2 0.1 0.1 0.1 0.1 0.0 0.0 0.0 0.0 0.0 0.0 0.0 0.0 0.0 0.0 0.0 0.0 0.0 0.0
3.6 0.9 1.6 2.5 1.0 1.8 1.7 2.5 3.8 5.4 10.8 20.4 7.4 8.4 5.6 3.8 4.2 2.9 1.1 0.7 0.7 0.7 0.5 0.5 0.4 0.2 0.1 0.1 0.1 0.1 0.0 0.0 0.0 0.0 0.0 0.0 0.0 0.0 0.0 0.0 0.0 0.0 0.0 0.0
7.4 3.4 1.8 1.3 3.8 3.2 4.9 12.5 29.1 32.4 31.7 17.6 3.4 5.5 5.8 3.9 3.5 3.6 2.4 1.7 1.1 0.7 0.6 0.6 0.6 0.5 0.2 0.2 0.1 0.1 0.1 0.1 0.1 0.0 0.0 0.0 0.0 0.0 0.0 0.0 0.1 0.1 0.1 0.1
12.1 11.2 3.0 1.6 3.5 6.6 5.9 9.4 19.7 22.1 16.4 7.9 4.0 5.4 4.5 3.1 2.4 2.6 2.1 1.5 0.9 0.5 0.6 0.5 0.6 0.7 0.8 0.2 0.2 0.1 0.2 0.2 0.2 0.0 0.0 0.0 0.0 0.0 0.0 0.0 0.1 0.1 0.1 0.0
12.4 9.7 2.5 1.1 1.1 3.2 8.1 9.1 6.5 12.8 10.4 7.1 5.9 4.3 3.4 2.0 2.1 2.2 2.5 1.5 1.2 1.1 0.5 0.6 0.7 0.8 0.5 0.4 0.2 0.1 0.2 0.2 0.3 0.3 0.1 0.0 0.0 0.1 0.1 0.1 0.1 0.1 0.1 0.0
12.6 11.5 4.0 1.8 2.0 2.7 5.0 6.6 10.9 18.6 16.9 9.8 5.7 4.5 5.0 3.7 2.8 2.4 2.4 2.9 1.5 1.3 0.7 0.8 0.8 0.8 0.5 0.5 0.3 0.2 0.2 0.1 0.2 0.2 0.1 0.0 0.1 0.0 0.1 0.3 0.1 0.1 0.0 0.1
10.4 13.3 9.2 5.2 7.2 7.8 7.5 10.5 14.0 15.7 13.5 12.3 8.2 6.1 4.9 3.9 3.1 2.9 2.5 2.5 1.9 1.8 1.5 1.4 1.1 1.0 0.5 0.7 0.4 0.4 0.3 0.4 0.3 0.2 0.1 0.3 0.0 0.2 0.2 0.4 0.3 0.2 0.2 0.1
10.3 14.3 13.0 7.0 3.1 3.1 5.9 9.7 12.3 18.4 14.6 9.2 9.0 6.8 3.4 2.7 2.3 2.3 2.4 2.6 2.4 2.0 1.8 1.8 1.8 1.1 0.7 0.9 0.8 0.8 0.4 0.4 0.3 0.4 0.2 0.2 0.3 0.3 0.3 0.5 0.5 0.4 0.4 0.3
15.0 19.4 19.9 12.3 7.2 5.1 7.7 8.4 10.0 12.1 13.5 10.8 9.5 6.7 2.8 2.0 1.9 1.8 1.9 2.0 2.2 2.0 1.9 1.9 1.9 1.0 1.0 1.1 1.1 1.1 1.0 0.7 0.5 0.4 0.2 0.2 0.4 0.4 0.5 0.4 0.3 0.5 0.5 0.4
14.3 20.9 15.7 14.0 10.6 10.2 10.3 7.9 7.9 12.6 17.4 11.3 7.2 5.7 4.1 3.5 3.1 2.6 2.0 2.2 2.6 2.4 2.2 2.1 2.0 1.7 1.5 1.4 1.1 1.1 0.9 1.0 1.0 0.9 0.5 0.8 1.0 0.8 0.9 0.7 0.9 1.3 1.9 2.0
15.3 18.7 8.4 4.9 4.5 5.4 6.7 6.1 6.2 8.9 9.5 9.4 5.7 4.9 5.2 4.3 4.0 3.6 3.0 2.6 2.5 3.1 3.2 2.9 2.1 2.0 1.8 1.5 1.2 1.2 1.2 1.4 1.4 1.6 1.3 1.1 1.2 1.7 1.3 1.1 1.3 1.6 2.3 3.0
15.4 17.0 8.5 5.1 3.1 3.9 5.3 4.1 3.8 4.7 5.0 5.8 4.9 5.6 4.4 3.5 3.0 3.1 3.1 3.1 3.4 3.8 4.0 3.7 2.7 2.4 2.5 2.2 2.0 1.6 1.7 1.6 1.6 1.8 1.7 2.0 1.8 2.4 2.4 1.4 1.5 1.7 2.4 3.0
15.0 15.3 13.6 8.8 3.9 6.2 8.6 5.3 4.3 4.7 4.7 5.4 6.3 6.1 4.7 4.0 3.9 3.8 3.4 3.5 3.5 3.8 3.9 3.7 3.4 3.2 2.9 2.5 2.6 3.0 2.1 1.5 1.6 1.9 2.0 2.4 2.7 2.8 2.7 2.5 2.3 2.7 3.3 3.3
12.5 14.2 17.6 13.3 9.6 13.7 6.6 4.0 3.8 4.1 5.1 5.0 5.5 5.3 4.7 4.7 4.6 4.1 3.8 4.0 3.9 3.8 3.5 3.6 3.5 3.4 2.9 2.4 2.7 2.2 2.4 2.0 1.6 1.6 2.1 2.2 2.5 3.2 2.8 2.4 2.5 2.8 2.4 2.3
6.7 13.7 20.2 17.5 13.0 7.3 3.9 3.5 4.6 5.4 6.5 5.4 5.2 4.9 4.2 3.9 3.8 4.1 3.6 3.4 3.9 3.6 3.4 3.3 3.0 3.2 2.6 2.2 2.6 2.4 2.1 2.0 1.8 2.0 2.0 2.3 2.3 2.9 2.6 2.4 2.2 2.1 1.9 1.9
6.8 12.2 20.8 18.6 14.5 7.8 4.4 2.7 3.0 4.4 7.4 4.9 4.5 4.8 4.4 4.4 6.2 5.9 4.3 4.0 3.5 3.0 2.9 2.9 2.8 2.6 2.1 1.9 2.2 1.9 1.9 1.9 2.0 2.0 2.2 1.9 1.9 2.3 1.9 1.9 1.8 1.5 1.1 2.2
12.0 17.5 19.7 15.4 12.4 5.4 3.6 2.7 2.3 7.5 9.6 4.7 4.5 4.9 4.9 6.0 7.3 6.2 4.8 4.3 3.8 3.5 3.0 2.9 2.7 2.8 2.7 2.1 1.8 1.9 1.6 2.1 1.9 1.7 1.8 1.5 1.5 1.5 1.2 1.7 1.4 1.7 2.0 2.0
7.9 11.2 12.0 11.5 13.1 6.9 3.4 3.6 6.5 7.9 4.2 4.1 4.4 4.4 4.9 4.9 4.4 4.3 4.4 4.0 3.3 3.3 2.8 2.6 2.7 3.0 2.9 2.4 2.2 2.0 2.0 2.0 1.7 2.1 2.3 1.9 1.7 1.5 1.5 2.1 2.0 1.7 1.9 1.9
5.9 7.5 8.2 8.1 7.1 5.2 4.2 4.8 4.8 3.8 3.8 3.6 3.9 4.1 4.5 4.6 4.4 4.4 4.1 3.9 3.7 3.3 2.8 2.5 2.9 3.2 2.6 2.5 2.3 2.5 2.1 2.0 2.1 2.0 2.0 1.9 1.6 1.7 1.8 2.2 2.5 2.3 2.5 3.3
4.7 4.2 5.7 5.5 4.5 3.8 3.6 3.5 3.4 3.2 3.6 3.6 3.8 4.3 4.3 4.8 4.6 4.4 4.2 3.9 3.6 3.5 2.6 2.7 2.8 3.2 3.2 2.7 2.8 2.4 2.3 2.3 2.5 2.4 1.7 1.4 1.5 1.5 1.6 1.8 2.5 3.3 3.5 4.9
4.1 4.0 5.3 4.9 3.5 3.0 2.7 2.8 3.1 3.4 3.2 3.3 3.4 3.8 4.1 4.2 4.2 4.2 4.2 4.1 4.1 3.6 3.1 2.8 3.1 3.3 3.5 2.9 2.7 2.5 3.0 3.1 3.0 2.3 2.1 1.7 1.5 1.5 1.7 1.8 2.2 3.3 3.6 5.8
3.3 4.3 5.4 4.9 3.1 3.7 3.2 2.4 2.6 3.2 3.3 3.2 3.3 3.5 3.3 3.4 4.0 3.9 3.8 3.7 3.8 3.6 3.4 3.2 3.6 3.9 3.7 3.6 3.4 3.2 3.4 3.7 4.2 3.3 2.6 2.3 2.3 1.8 1.8 2.0 2.3 1.8 2.6 3.0